Detroit, MI

6:07 PM EDT on April 23, 2017 (GMT -0400)
Detroit City

Weather History for KDET - August, 2013

Change the Weather History Date:

Sunday, August 18, 2013

  Actual Average Record
Temperature  
Mean Temperature 70 °F -  
Max Temperature 81 °F 82 °F 93 °F (1955)
Min Temperature 61 °F 63 °F 49 °F (1963)
Cooling Degree Days 6    
Growing Degree Days 20 (Base 50)    
Moisture  
Dew Point 58 °F    
Average Humidity 66    
Maximum Humidity 90    
Minimum Humidity 40    
Precipitation  
Precipitation 0.00 in - - ()
Sea Level Pressure  
Sea Level Pressure 30.18 in    
Wind  
Wind Speed 3 mph (East)    
Max Wind Speed 9 mph    
Max Gust Speed -    
Visibility 9 miles    
Events      
Averages and records for this station are not official NWS values.
T = Trace of Precipitation, MM = Missing Value Source: NWS Daily Summary

Daily Weather History Graph

Daily Weather History Graph

Search for Another Location

Airport or City:

Trip Planner

Search our weather history database for the weather conditions in past years. The results will help you decide how hot, cold, wet, or windy it might be!

Date:

Astronomy

Aug. 18, 2013 Rise Set
Actual Time 6:42 AM EDT 8:28 PM EDT
Civil Twilight 6:12 AM EDT 8:58 PM EDT
Nautical Twilight 5:35 AM EDT 9:34 PM EDT
Astronomical Twilight 4:56 AM EDT 10:13 PM EDT
Moon 6:34 PM EDT (8/18) 3:48 AM EDT (8/18)
Length of Visible Light 14h 45m
Length of Day
13h 45m
Waxing Gibbous, 92% of the Moon is Illuminated
Aug 18
Waxing Gibbous
Aug 20
Full
Aug 28
Last Quarter
Sep 5
New
Sep 12
First Quarter

Hourly Weather History & Observations

Time (EDT) Temp. Heat Index Dew Point Humidity Pressure Visibility Wind Dir Wind Speed Gust Speed Precip Events Conditions
12:53 AM 66.0 °F - 60.1 °F 81% 30.21 in 10.0 mi Calm Calm - N/A   Clear
1:53 AM 64.9 °F - 60.1 °F 84% 30.20 in 10.0 mi Calm Calm - N/A   Clear
2:53 AM 64.0 °F - 60.1 °F 87% 30.20 in 8.0 mi North 3.5 mph - N/A   Clear
3:53 AM 63.0 °F - 59.0 °F 87% 30.20 in 7.0 mi Calm Calm - N/A   Clear
4:53 AM 62.1 °F - 59.0 °F 90% 30.19 in 7.0 mi North 3.5 mph - N/A   Clear
5:53 AM 62.1 °F - 57.9 °F 86% 30.20 in 7.0 mi North 4.6 mph - N/A   Clear
6:53 AM 61.0 °F - 57.0 °F 87% 30.22 in 5.0 mi North 3.5 mph - N/A   Clear
7:53 AM 63.0 °F - 59.0 °F 87% 30.22 in 6.0 mi Calm Calm - N/A   Clear
8:53 AM 68.0 °F - 63.0 °F 84% 30.23 in 9.0 mi Variable 4.6 mph - N/A   Clear
9:53 AM 73.0 °F - 64.9 °F 76% 30.22 in 10.0 mi Calm Calm - N/A   Clear
10:53 AM 75.9 °F - 62.1 °F 62% 30.22 in 10.0 mi ENE 4.6 mph - N/A   Clear
11:53 AM 77.0 °F - 59.0 °F 54% 30.21 in 10.0 mi ESE 6.9 mph - N/A   Clear
12:53 PM 79.0 °F - 55.9 °F 45% 30.20 in 10.0 mi East 9.2 mph - N/A   Scattered Clouds
1:53 PM 80.1 °F 80.0 °F 54.0 °F 40% 30.19 in 10.0 mi ENE 8.1 mph - N/A   Clear
2:53 PM 80.1 °F 80.0 °F 54.0 °F 40% 30.17 in 10.0 mi ENE 8.1 mph - N/A   Clear
3:53 PM 79.0 °F - 57.9 °F 48% 30.15 in 10.0 mi Variable 6.9 mph - N/A   Partly Cloudy
4:53 PM 79.0 °F - 57.9 °F 48% 30.14 in 10.0 mi SE 8.1 mph - N/A   Clear
5:53 PM 78.1 °F - 57.0 °F 48% 30.13 in 10.0 mi ESE 9.2 mph - N/A   Clear
6:53 PM 75.9 °F - 55.9 °F 50% 30.13 in 10.0 mi ESE 8.1 mph - N/A   Clear
7:53 PM 75.0 °F - 57.0 °F 53% 30.12 in 10.0 mi SSE 6.9 mph - N/A   Clear
8:53 PM 71.1 °F - 57.0 °F 61% 30.13 in 10.0 mi SW 4.6 mph - N/A   Clear
9:53 PM 71.1 °F - 55.9 °F 59% 30.14 in 10.0 mi Calm Calm - N/A   Clear
10:53 PM 69.1 °F - 57.0 °F 65% 30.14 in 10.0 mi Calm Calm - N/A   Clear
11:53 PM 68.0 °F - 57.0 °F 68% 30.14 in 10.0 mi Calm Calm - N/A   Clear